Location: *
(42.0175°N, 9.4056°E)
Time: 01:56:51
(UTC+00:00)

SJ-6B - Pass Details

Date: 25 August 2019
Orbit: 511 x 581 km, 97.7° (Epoch: 19 September)

Event Time Altitude Azimuth Distance (km) Brightness Sun altitude
Exits shadow 19:05:52 - 169° (S) 2,548 5.9 -10.9°
Reaches altitude 10° 19:07:35 10° 170° (S) 1,832 5.1 -11.2°
Maximum altitude 19:11:33 80° 257° (WSW) 578 3.0 -11.8°
Drops below altitude 10° 19:15:39 10° 346° (NNW) 1,885 6.1 -12.5°
Sets 19:17:50 0° 347° (NNW) 2,795 7.1 -12.9°
